Flag for Switzerland Weather past 2 weeks in Wallisellen, Zurich, Switzerland

Now
43 °F

Quite cool.


Feels Like: 36 °F
Forecast: 33 / 46 °F
Wind: 15 mph from Southwest

Location: Zurich Town / Ville.

Current Time: Mar 2, 2015 at 6:27:50 PM

Latest Report: Mar 2, 2015 at 5:00 PM


Visibility: N/A

Pressure: 29.96 "Hg

Humidity: 76%

Dew point: 36 °F

Location of WallisellenLocation

Historic Weather in Wallisellen — Graph

°F

Wallisellen temperature yesterday

Maximum temperature yesterday: 47 °F (at 8:00 PM)
Minimum temperature yesterday: 33 °F (at 12:00 AM)
Average temperature yesterday: 39 °F

Past Weeks' High & Low Weather Summary

 TemperatureHumidityPressure
High50 °F (Feb 20, 4:00 PM)100% (Feb 21, 10:00 PM)30.75 "Hg (Feb 21, 10:00 PM)
Low28 °F (Feb 17, 12:00 AM)35% (Feb 20, 4:00 PM)29.58 "Hg (Feb 21, 12:00 PM)
Average35 °F83%30.08 "Hg
* Reported Feb 15 5:00 PM — Mar 2 5:00 PM, Wallisellen, Weather by CustomWeather, © 2015

Note: Actual official high and low records may vary slightly from our data, if they occured in-between our weather recording intervals... More about our weather records

Advertising

Wallisellen weather history for previous 24 hours

 ConditionsComfort  
Time TempWeatherWind HumidityBarometerVisibility
5:00 PM
Mon, Mar 2
43 °FQuite cool.15 mph76%29.96 "HgN/A
4:00 PM43 °FQuite cool.12 mph84%29.95 "HgN/A
3:00 PM42 °FQuite cool.15 mph91%29.93 "HgN/A
2:00 PM43 °FQuite cool.13 mph84%29.93 "HgN/A
1:00 PM41 °FOvercast.10 mph90%29.93 "HgN/A
12:00 PM39 °FChilly.12 mph94%29.92 "HgN/A
11:00 AM41 °FQuite cool.12 mph91%29.88 "HgN/A
10:00 AM46 °FCool.15 mph86%29.83 "HgN/A
9:00 AM47 °FCool.20 mph79%29.82 "HgN/A
8:00 AM47 °FCool.21 mph77%29.78 "HgN/A
7:00 AM47 °FCool.20 mph86%29.76 "HgN/A
6:00 AM48 °FCool.18 mph86%29.76 "HgN/A
5:00 AM49 °FCool.17 mph82%29.75 "HgN/A
4:00 AM47 °FCool.17 mph87%29.77 "HgN/A
3:00 AM47 °FCool.20 mph86%29.78 "HgN/A
2:00 AM45 °FCool.16 mph89%29.80 "HgN/A
1:00 AM44 °FQuite cool.13 mph94%29.83 "HgN/A
12:00 AM46 °FCool.16 mph88%29.84 "HgN/A
11:00 PM
Sun, Mar 1
46 °FCool.20 mph87%29.85 "HgN/A
10:00 PM42 °FQuite cool.7 mph92%29.88 "HgN/A
9:00 PM46 °FCool.8 mph83%29.86 "HgN/A
8:00 PM47 °FCool.12 mph82%29.88 "HgN/A
7:00 PM46 °FOvercast.16 mph84%29.88 "HgN/A
6:00 PM46 °FCool.17 mph83%29.88 "HgN/A
Weather by CustomWeather, © 2015

See weather overviewHow to use our weather pages